Location: Newark
(52.4787°S, 179.0532°W)
Time: 04:58:36
(UTC+00:00)

Envisat - Pass Details

Date: 21 October 2019
Orbit: 764 x 766 km, 98.1° (Epoch: 21 November)

Event Time Altitude Azimuth Distance (km) Brightness Sun altitude
Rises 08:02:34 0° 170° (S) 3,277 6.6 -11.6°
Reaches altitude 10° 08:05:01 10° 178° (S) 2,344 6.0 -11.9°
Maximum altitude 08:09:45 37° 244° (WSW) 1,195 4.7 -12.4°
Drops below altitude 10° 08:14:25 10° 309° (NW) 2,320 5.7 -13.0°
Sets 08:16:51 0° 317° (NW) 3,240 6.3 -13.3°
